Regional Weather Roundup
Issued by NWS

Home | Current Version | Previous Version | Text Only | Print | Product List | Glossary Off
Versions: 1 2 3 4 5 6 7 8 9 10 11 12 13 14 15 16 17 18 19 20 21 22 23 24 25 26 27 28 29 30 31 32 33 34 35 36 37 38 39 40 41 42 43 44 45 46 47 48 49 50

000
ASUS43 KLSX 211407
RWRMO

WEATHER SUMMARY FOR MISSOURI
NATIONAL WEATHER SERVICE SPRINGFIELD MO
900 AM CDT SUN SEP 21 2014

NOTE: "FAIR" INDICATES FEW OR NO CLOUDS BELOW 12,000 FEET WITH NO
       SIGNIFICANT WEATHER AND/OR OBSTRUCTIONS TO VISIBILITY.
       CURRENT SKY AND/OR WEATHER CONDITIONS ARE NOT AVAILABLE FOR
       CHILLICOTHE AND FARMINGTON.

MOZ001>031-035>038-043-044-053-054-211500-
...NORTHERN AND WESTERN MISSOURI...

CITY           SKY/WX    TMP DP  RH WIND       PRES   REMARKS
KANSAS CTY INT SUNNY     62  55  77 W7        30.17R
KANSAS C DTWN  SUNNY     65  55  70 CALM      30.16R
LEE`S SUMMIT   SUNNY     64  54  69 W6        30.16R
ST JOSEPH      SUNNY     61  56  83 CALM      30.17R
CHILLICOTHE      N/A     64  52  64 VRB3      30.13R
KIRKSVILLE     SUNNY     62  50  64 W12       30.09R

$$
MOZ066>068-077>081-088>096-101>105-211500-
...SOUTHWEST MISSOURI...

CITY           SKY/WX    TMP DP  RH WIND       PRES   REMARKS
SPRINGFIELD    SUNNY     68  59  73 N10       30.12R
JOPLIN         SUNNY     69  56  62 N9        30.14R

$$
MOZ032>034-039>042-045>050-055>058-069>072-211500-
...CENTRAL MISSOURI...

CITY           SKY/WX    TMP DP  RH WIND       PRES   REMARKS
COLUMBIA       SUNNY     65  54  67 NW8       30.10R
JEFFERSON CITY SUNNY     65  54  67 NW6       30.09R
ROLLA          SUNNY     64  52  64 N8        30.08R
SEDALIA        SUNNY     65  54  67 NW5       30.12R
WHITEMAN AFB   SUNNY     64  54  69 NW6       30.12R
OSAGE BEACH    SUNNY     64  50  59 N3        30.11R

$$
MOZ051-052-059>065-211500-
...EAST CENTRAL MISSOURI...

CITY           SKY/WX    TMP DP  RH WIND       PRES   REMARKS
ST LOUIS INTL  MOSUNNY   68  55  63 NW8       30.04R
SPIRIT OF STL  SUNNY     66  55  67 W5        30.04R
ST CHARLES     SUNNY     66  54  65 W9        30.03R

$$
MOZ072>076-082>087-097>100-106>115-211500-
...SOUTH CENTRAL AND SOUTHEAST MISSOURI...

CITY           SKY/WX    TMP DP  RH WIND       PRES   REMARKS
CAPE GIRARDEAU MOSUNNY   75  69  81 N10       30.00R
FARMINGTON     MOSUNNY   70  59  68 N10G18    30.07R
POPLAR BLUFF   MOSUNNY   75  68  78 NW8       30.00R
WEST PLAINS    PTSUNNY   72  67  84 N9        30.08R

$$


USA.gov is the U.S. government's official web portal to all federal, state and local government web resources and services.